QPF
0.00 0.00 0.01 0.01 0.00 0.00 0.02 0.06 0.08 0.04 0.01 0.00 0.00 0.00 0.00 0.00 0.00 0.00 0.00 0.00 0.00 0.00 0.00 0.00 0.00 0.00 0.00 0.00 0.00 0.00 0.00 0.00 0.00 0.00 0.01 0.00 0.01 0.05 0.06 0.11 0.21 0.58 0.61 0.47
0.02 0.00 0.01 0.02 0.02 0.02 0.03 0.02 0.02 0.00 0.00 0.00 0.00 0.00 0.00 0.00 0.00 0.00 0.00 0.00 0.00 0.00 0.00 0.00 0.00 0.00 0.00 0.00 0.00 0.00 0.00 0.00 0.00 0.00 0.00 0.01 0.01 0.02 0.01 0.00 0.01 0.05 0.03 0.03
0.05 0.01 0.04 0.04 0.00 0.00 0.00 0.00 0.00 0.00 0.00 0.00 0.00 0.00 0.00 0.00 0.00 0.00 0.00 0.00 0.00 0.00 0.00 0.00 0.00 0.00 0.00 0.00 0.00 0.00 0.00 0.00 0.00 0.00 0.00 0.00 0.00 0.00 0.01 0.01 0.00 0.00 0.00 0.00
0.09 0.02 0.03 0.00 0.00 0.00 0.00 0.00 0.00 0.00 0.00 0.00 0.00 0.00 0.00 0.00 0.00 0.00 0.00 0.00 0.00 0.00 0.00 0.00 0.00 0.00 0.00 0.00 0.00 0.00 0.00 0.00 0.00 0.00 0.00 0.00 0.00 0.00 0.00 0.00 0.00 0.00 0.00 0.00
0.08 0.03 0.00 0.00 0.00 0.00 0.00 0.00 0.00 0.00 0.00 0.00 0.00 0.00 0.00 0.00 0.00 0.00 0.00 0.00 0.00 0.00 0.00 0.00 0.00 0.00 0.00 0.00 0.00 0.00 0.00 0.00 0.00 0.00 0.00 0.00 0.00 0.00 0.00 0.00 0.00 0.00 0.00 0.00
0.05 0.01 0.00 0.00 0.00 0.00 0.00 0.00 0.00 0.00 0.00 0.00 0.00 0.00 0.00 0.00 0.00 0.00 0.00 0.00 0.00 0.00 0.00 0.00 0.00 0.00 0.00 0.00 0.00 0.00 0.00 0.00 0.00 0.00 0.00 0.00 0.00 0.00 0.00 0.00 0.00 0.00 0.00 0.00
0.05 0.05 0.01 0.00 0.00 0.00 0.00 0.00 0.00 0.00 0.00 0.00 0.00 0.00 0.00 0.00 0.00 0.00 0.00 0.00 0.00 0.00 0.00 0.00 0.00 0.00 0.00 0.00 0.00 0.00 0.00 0.00 0.00 0.00 0.00 0.00 0.00 0.00 0.00 0.00 0.00 0.00 0.00 0.00
0.08 0.08 0.01 0.00 0.00 0.00 0.00 0.00 0.00 0.00 0.00 0.00 0.00 0.00 0.00 0.00 0.00 0.00 0.00 0.00 0.00 0.00 0.00 0.00 0.00 0.00 0.00 0.00 0.00 0.00 0.00 0.00 0.00 0.00 0.00 0.00 0.00 0.00 0.00 0.00 0.00 0.00 0.00 0.00
0.01 0.01 0.00 0.00 0.00 0.00 0.00 0.00 0.00 0.00 0.00 0.00 0.00 0.00 0.00 0.00 0.00 0.00 0.00 0.00 0.00 0.00 0.00 0.00 0.00 0.00 0.00 0.00 0.00 0.00 0.00 0.00 0.00 0.00 0.00 0.00 0.00 0.00 0.00 0.00 0.00 0.00 0.00 0.00
0.00 0.00 0.00 0.00 0.00 0.00 0.00 0.00 0.00 0.00 0.00 0.00 0.00 0.00 0.00 0.00 0.00 0.00 0.00 0.00 0.00 0.00 0.00 0.00 0.00 0.00 0.00 0.00 0.00 0.00 0.00 0.00 0.00 0.00 0.00 0.00 0.00 0.00 0.00 0.00 0.00 0.00 0.00 0.00
0.00 0.00 0.00 0.00 0.00 0.00 0.00 0.00 0.00 0.00 0.00 0.00 0.00 0.00 0.00 0.00 0.00 0.01 0.00 0.00 0.00 0.00 0.00 0.00 0.00 0.00 0.00 0.00 0.00 0.00 0.00 0.00 0.00 0.00 0.00 0.00 0.00 0.00 0.00 0.01 0.00 0.00 0.00 0.00
0.00 0.00 0.00 0.00 0.00 0.00 0.00 0.00 0.00 0.00 0.00 0.00 0.00 0.00 0.00 0.00 0.00 0.00 0.00 0.00 0.00 0.00 0.00 0.00 0.00 0.00 0.00 0.00 0.00 0.00 0.00 0.00 0.00 0.00 0.00 0.00 0.00 0.00 0.00 0.00 0.00 0.00 0.00 0.00
0.00 0.00 0.00 0.00 0.00 0.00 0.00 0.00 0.00 0.00 0.00 0.00 0.00 0.00 0.00 0.00 0.00 0.00 0.01 0.00 0.00 0.00 0.00 0.00 0.00 0.00 0.00 0.00 0.00 0.00 0.00 0.00 0.00 0.00 0.00 0.00 0.00 0.00 0.00 0.00 0.00 0.00 0.00 0.00
0.00 0.00 0.00 0.00 0.00 0.00 0.00 0.00 0.00 0.00 0.00 0.00 0.00 0.00 0.00 0.00 0.00 0.00 0.00 0.00 0.00 0.00 0.00 0.00 0.00 0.00 0.00 0.00 0.00 0.00 0.00 0.00 0.00 0.00 0.00 0.00 0.00 0.00 0.00 0.00 0.00 0.00 0.00 0.00
0.00 0.00 0.00 0.00 0.00 0.00 0.00 0.00 0.00 0.00 0.00 0.00 0.00 0.00 0.00 0.00 0.00 0.00 0.00 0.00 0.00 0.00 0.00 0.00 0.00 0.00 0.00 0.00 0.00 0.00 0.00 0.00 0.00 0.00 0.00 0.00 0.00 0.00 0.00 0.00 0.00 0.00 0.00 0.00
0.00 0.00 0.00 0.00 0.00 0.00 0.00 0.00 0.00 0.00 0.00 0.00 0.00 0.00 0.00 0.00 0.00 0.00 0.00 0.00 0.00 0.00 0.00 0.00 0.00 0.00 0.00 0.00 0.00 0.00 0.00 0.00 0.00 0.00 0.00 0.00 0.00 0.00 0.00 0.00 0.00 0.00 0.00 0.00
0.00 0.00 0.00 0.00 0.00 0.00 0.00 0.00 0.00 0.00 0.00 0.00 0.00 0.00 0.00 0.00 0.00 0.00 0.00 0.00 0.00 0.00 0.00 0.00 0.00 0.00 0.00 0.00 0.00 0.00 0.00 0.00 0.00 0.00 0.00 0.00 0.00 0.00 0.00 0.00 0.00 0.00 0.00 0.00
0.00 0.00 0.00 0.00 0.00 0.00 0.00 0.00 0.00 0.00 0.00 0.00 0.00 0.00 0.00 0.00 0.00 0.00 0.00 0.00 0.00 0.00 0.00 0.00 0.00 0.00 0.00 0.00 0.00 0.00 0.00 0.00 0.00 0.00 0.00 0.00 0.00 0.00 0.00 0.00 0.00 0.00 0.00 0.00
0.00 0.00 0.00 0.00 0.00 0.00 0.00 0.00 0.00 0.00 0.00 0.00 0.00 0.00 0.00 0.00 0.00 0.00 0.00 0.00 0.00 0.00 0.00 0.00 0.00 0.00 0.00 0.00 0.00 0.00 0.00 0.00 0.00 0.00 0.00 0.00 0.00 0.00 0.00 0.00 0.00 0.00 0.00 0.00
0.00 0.00 0.00 0.00 0.00 0.00 0.00 0.00 0.00 0.00 0.00 0.00 0.00 0.00 0.00 0.00 0.00 0.00 0.00 0.00 0.00 0.00 0.00 0.00 0.00 0.00 0.00 0.00 0.00 0.00 0.00 0.00 0.00 0.00 0.00 0.00 0.00 0.00 0.00 0.00 0.00 0.00 0.00 0.00
0.00 0.00 0.00 0.00 0.00 0.00 0.00 0.00 0.00 0.00 0.00 0.00 0.00 0.00 0.00 0.00 0.00 0.00 0.00 0.00 0.00 0.00 0.00 0.00 0.00 0.00 0.00 0.00 0.00 0.00 0.00 0.00 0.00 0.00 0.00 0.00 0.00 0.00 0.00 0.00 0.00 0.00 0.00 0.00
0.00 0.00 0.00 0.00 0.00 0.00 0.00 0.00 0.00 0.00 0.00 0.00 0.00 0.00 0.00 0.00 0.00 0.00 0.00 0.00 0.00 0.00 0.00 0.00 0.00 0.00 0.00 0.00 0.00 0.00 0.00 0.00 0.00 0.00 0.00 0.00 0.00 0.00 0.00 0.00 0.00 0.00 0.00 0.00
0.00 0.00 0.00 0.00 0.00 0.00 0.00 0.00 0.00 0.00 0.00 0.00 0.00 0.00 0.00 0.00 0.00 0.00 0.00 0.00 0.00 0.00 0.00 0.00 0.00 0.00 0.00 0.00 0.00 0.00 0.00 0.00 0.00 0.00 0.00 0.00 0.00 0.00 0.00 0.00 0.00 0.00 0.00 0.00
0.00 0.00 0.00 0.00 0.00 0.00 0.00 0.00 0.00 0.00 0.00 0.00 0.00 0.00 0.00 0.00 0.00 0.00 0.00 0.00 0.00 0.00 0.00 0.00 0.00 0.00 0.00 0.00 0.00 0.00 0.00 0.00 0.00 0.00 0.00 0.00 0.00 0.00 0.00 0.00 0.00 0.00 0.00 0.00
0.00 0.00 0.00 0.00 0.00 0.00 0.00 0.00 0.00 0.00 0.00 0.00 0.00 0.00 0.00 0.00 0.00 0.00 0.00 0.00 0.00 0.00 0.00 0.00 0.00 0.00 0.00 0.00 0.00 0.00 0.00 0.00 0.00 0.00 0.00 0.00 0.00 0.00 0.00 0.00 0.00 0.00 0.00 0.00
0.00 0.00 0.00 0.00 0.00 0.00 0.00 0.00 0.00 0.00 0.00 0.01 0.01 0.00 0.00 0.00 0.00 0.00 0.00 0.00 0.00 0.00 0.00 0.00 0.00 0.00 0.00 0.00 0.00 0.00 0.00 0.00 0.00 0.00 0.00 0.00 0.00 0.00 0.00 0.00 0.00 0.00 0.00 0.00
0.00 0.00 0.00 0.00 0.00 0.00 0.00 0.00 0.00 0.00 0.00 0.00 0.00 0.00 0.00 0.00 0.00 0.00 0.00 0.00 0.00 0.00 0.00 0.00 0.00 0.00 0.00 0.00 0.00 0.00 0.00 0.00 0.00 0.00 0.00 0.00 0.00 0.00 0.00 0.00 0.00 0.00 0.00 0.00
MSLP
1016.66 1016.47 1016.33 1016.28 1016.52 1016.95 1017.32 1017.21 1017.86 1017.76 1018.34 1018.25 1019.42 1020.73 1021.85 1023.33 1024.45 1025.43 1026.18 1026.46 1026.70 1027.01 1026.80 1027.61 1027.40 1026.64 1026.30 1026.12 1025.93 1025.60 1025.39 1024.91 1024.63 1024.37 1023.76 1023.14 1022.67 1021.99 1021.43 1020.80 1019.95 1018.71 1017.64 1016.42
1017.23 1016.60 1016.65 1016.59 1016.32 1016.76 1016.81 1016.96 1017.16 1017.49 1018.20 1018.49 1019.20 1020.58 1021.96 1022.96 1023.97 1025.07 1025.64 1025.84 1026.32 1026.49 1026.89 1027.65 1027.38 1026.81 1026.63 1026.56 1026.42 1026.26 1026.17 1025.68 1025.59 1025.12 1025.02 1024.36 1024.08 1023.51 1022.75 1022.16 1021.58 1020.69 1019.71 1019.51
1016.80 1016.36 1016.50 1016.30 1015.46 1015.62 1015.59 1015.58 1015.76 1017.04 1017.41 1018.57 1019.93 1020.68 1021.57 1022.75 1023.74 1024.63 1025.14 1025.57 1026.12 1026.49 1027.07 1027.51 1027.39 1026.93 1026.91 1026.98 1026.91 1026.84 1026.84 1026.56 1026.30 1025.97 1025.81 1025.37 1025.08 1024.57 1024.18 1023.52 1023.34 1022.25 1021.61 1020.79
1016.76 1016.59 1015.82 1014.52 1014.48 1014.70 1014.91 1014.97 1015.52 1016.50 1017.59 1018.58 1019.59 1020.69 1021.72 1022.54 1023.40 1024.21 1024.84 1025.58 1026.31 1026.76 1027.43 1027.55 1027.35 1027.20 1027.04 1027.23 1027.30 1027.40 1027.27 1027.21 1027.02 1026.74 1026.60 1026.44 1026.03 1025.84 1025.51 1025.19 1024.58 1023.79 1023.30 1022.74
1016.16 1015.71 1014.77 1014.08 1014.07 1014.54 1014.75 1014.53 1014.83 1016.28 1017.95 1019.39 1020.41 1021.43 1022.36 1022.70 1023.23 1023.84 1024.60 1025.47 1026.20 1026.92 1027.55 1027.69 1027.52 1027.46 1027.46 1027.56 1027.76 1027.77 1027.90 1027.90 1027.77 1027.52 1027.32 1027.24 1026.62 1026.55 1026.36 1025.91 1025.67 1025.54 1025.39 1024.53
1015.86 1015.39 1014.53 1013.64 1013.61 1013.96 1014.55 1015.16 1015.40 1016.37 1018.10 1019.40 1020.56 1021.53 1021.74 1022.44 1023.05 1023.88 1024.66 1025.37 1026.21 1027.02 1027.64 1027.73 1027.84 1027.76 1027.87 1028.02 1028.02 1028.02 1028.25 1028.40 1028.60 1028.57 1028.21 1028.24 1027.87 1027.56 1027.33 1026.79 1026.59 1026.25 1025.89 1025.87
1015.10 1015.04 1014.39 1013.51 1013.77 1014.32 1015.23 1015.90 1015.96 1016.81 1017.99 1019.24 1020.13 1020.63 1020.76 1021.96 1023.10 1023.94 1024.68 1025.45 1026.41 1027.17 1027.70 1027.97 1028.06 1028.04 1028.35 1028.53 1028.53 1028.56 1028.62 1028.68 1028.77 1028.86 1028.95 1028.94 1028.86 1028.63 1028.51 1028.31 1028.02 1027.75 1027.56 1027.45
1014.87 1014.90 1014.32 1013.48 1014.42 1014.79 1014.99 1015.67 1016.28 1017.17 1018.14 1019.29 1020.16 1020.73 1021.43 1022.35 1023.33 1024.11 1024.85 1025.75 1026.57 1027.25 1027.85 1028.19 1028.31 1028.34 1028.69 1028.92 1029.05 1028.98 1028.99 1029.03 1029.19 1029.33 1029.33 1029.45 1029.51 1029.44 1029.28 1029.11 1029.02 1028.90 1028.78 1028.62
1014.38 1014.19 1013.88 1014.26 1014.31 1014.63 1014.98 1015.76 1016.54 1017.32 1018.34 1019.29 1020.26 1021.17 1021.94 1022.74 1023.50 1024.25 1024.99 1025.83 1026.64 1027.28 1027.96 1028.40 1028.59 1028.64 1028.94 1029.22 1029.21 1029.25 1029.33 1029.52 1029.62 1029.80 1029.81 1029.77 1029.80 1029.77 1029.60 1029.39 1029.34 1029.43 1029.36 1029.35
1014.43 1014.33 1014.38 1014.57 1014.89 1015.06 1015.44 1016.02 1016.72 1017.41 1018.31 1019.27 1020.22 1021.26 1022.06 1022.79 1023.53 1024.30 1025.11 1025.94 1026.71 1027.40 1028.03 1028.54 1028.84 1028.97 1029.07 1029.17 1029.32 1029.46 1029.61 1029.82 1030.00 1030.05 1030.24 1030.25 1030.11 1029.93 1029.93 1029.92 1029.81 1029.87 1029.97 1029.93
1014.46 1014.66 1014.93 1014.96 1015.15 1015.52 1016.16 1016.56 1017.15 1017.91 1018.56 1019.32 1020.17 1021.24 1021.80 1022.63 1023.42 1024.32 1025.18 1026.02 1026.71 1027.42 1028.16 1028.76 1029.14 1029.35 1029.35 1029.38 1029.41 1029.55 1029.80 1030.06 1030.27 1030.49 1030.60 1030.65 1030.49 1030.02 1030.08 1030.51 1030.12 1030.26 1030.47 1030.34
1014.20 1014.01 1014.60 1014.97 1015.27 1015.87 1016.55 1017.13 1017.60 1018.15 1019.11 1019.77 1020.25 1021.04 1021.88 1022.73 1023.51 1024.39 1025.25 1026.05 1026.80 1027.47 1028.20 1028.91 1029.32 1029.56 1029.65 1029.62 1029.65 1029.78 1030.00 1030.33 1030.56 1030.75 1030.91 1030.92 1030.89 1030.83 1030.49 1030.41 1030.24 1030.19 1030.18 1030.11
1013.75 1014.32 1014.90 1015.30 1015.86 1016.33 1016.92 1017.54 1018.08 1018.59 1019.12 1019.78 1020.61 1021.15 1021.98 1022.88 1023.76 1024.51 1025.35 1026.12 1026.81 1027.50 1028.25 1028.91 1029.43 1029.75 1029.92 1029.95 1030.03 1030.22 1030.43 1030.61 1030.87 1031.00 1031.26 1031.44 1031.61 1031.75 1031.89 1031.57 1031.07 1030.92 1030.72 1030.41
1014.10 1014.46 1015.54 1015.91 1016.36 1016.88 1017.33 1017.97 1018.52 1019.11 1019.73 1020.18 1020.79 1021.57 1022.25 1023.14 1024.06 1024.77 1025.42 1026.06 1026.83 1027.62 1028.40 1029.01 1029.55 1029.98 1030.21 1030.31 1030.46 1030.71 1030.96 1031.14 1031.40 1031.72 1032.03 1032.21 1032.54 1032.72 1032.95 1032.74 1032.49 1032.41 1031.72 1031.09
1014.50 1014.52 1014.93 1015.75 1016.60 1017.38 1017.90 1018.42 1019.17 1019.90 1020.44 1021.02 1021.37 1021.86 1022.62 1023.46 1024.24 1025.00 1025.68 1026.35 1027.12 1027.91 1028.62 1029.21 1029.77 1030.34 1030.43 1030.59 1030.82 1031.12 1031.36 1031.63 1031.87 1032.10 1032.25 1032.39 1032.68 1032.77 1032.93 1033.16 1033.07 1033.14 1032.56 1031.90
1014.98 1015.35 1015.79 1016.28 1017.07 1017.77 1018.34 1019.04 1019.57 1020.38 1020.88 1021.34 1021.80 1022.38 1022.94 1023.68 1024.61 1025.46 1026.16 1026.76 1027.44 1028.22 1028.91 1029.53 1030.10 1030.49 1030.75 1030.91 1031.08 1031.27 1031.50 1031.68 1031.99 1032.24 1032.50 1032.74 1032.96 1033.10 1033.39 1033.48 1033.49 1033.43 1033.22 1032.87
1015.26 1016.12 1016.49 1017.00 1017.45 1018.01 1018.53 1019.01 1019.56 1020.40 1021.10 1021.60 1022.19 1022.84 1023.62 1024.41 1025.20 1026.24 1026.91 1027.36 1027.91 1028.50 1028.98 1029.59 1030.19 1030.67 1031.04 1031.28 1031.44 1031.60 1031.74 1031.86 1032.02 1032.32 1032.61 1032.83 1033.04 1033.31 1033.35 1033.64 1033.51 1033.46 1033.39 1032.71
1014.75 1015.17 1015.92 1016.50 1017.38 1018.19 1018.99 1019.58 1020.09 1020.73 1021.32 1021.90 1022.69 1023.56 1024.39 1025.09 1025.63 1026.61 1027.49 1028.09 1028.71 1029.13 1029.29 1029.56 1030.11 1030.69 1031.24 1031.52 1031.64 1031.65 1031.74 1031.87 1032.05 1032.31 1032.49 1032.72 1032.88 1032.90 1033.12 1033.34 1033.39 1033.39 1033.03 1032.69
1015.07 1015.67 1016.36 1017.03 1017.73 1018.47 1019.22 1019.88 1020.50 1021.09 1021.82 1022.55 1023.57 1024.31 1024.72 1025.44 1026.13 1026.87 1027.66 1028.55 1029.37 1030.04 1029.84 1029.91 1030.29 1030.75 1031.24 1031.62 1031.59 1031.75 1031.84 1031.99 1032.19 1032.32 1032.46 1032.62 1032.83 1032.91 1033.13 1033.35 1033.28 1033.13 1033.07 1032.84
1015.76 1016.31 1017.03 1017.74 1018.41 1019.05 1019.77 1020.35 1020.89 1021.71 1022.35 1023.20 1024.19 1025.11 1025.87 1026.62 1026.78 1027.56 1028.16 1028.96 1029.19 1029.57 1029.47 1029.96 1030.31 1030.59 1030.91 1031.21 1031.03 1031.58 1031.79 1031.97 1032.17 1032.33 1032.54 1032.77 1033.12 1033.40 1033.27 1033.08 1033.06 1033.12 1033.14 1032.92
1016.39 1017.01 1017.62 1018.25 1018.99 1019.68 1020.31 1020.60 1021.35 1022.18 1023.01 1023.53 1024.41 1025.14 1025.72 1026.47 1027.13 1027.75 1028.92 1029.05 1028.83 1029.07 1029.30 1029.69 1030.05 1030.33 1030.53 1030.78 1031.10 1031.44 1031.69 1032.01 1032.29 1032.51 1032.67 1032.98 1033.26 1033.32 1033.41 1033.44 1033.49 1033.48 1033.41 1033.26
1017.27 1017.87 1018.43 1019.08 1019.70 1020.52 1021.19 1021.27 1021.72 1022.56 1023.39 1024.17 1024.75 1025.43 1026.25 1027.26 1027.56 1027.95 1028.25 1028.36 1028.20 1028.60 1029.08 1029.48 1029.74 1029.93 1030.10 1030.48 1030.81 1031.28 1031.75 1032.02 1032.28 1032.53 1032.79 1033.10 1033.41 1033.87 1034.07 1034.05 1034.14 1034.03 1033.91 1033.64
1018.11 1018.64 1019.28 1019.85 1020.42 1021.08 1021.65 1022.02 1022.32 1022.75 1023.51 1024.12 1024.77 1025.36 1025.83 1026.34 1026.94 1027.56 1027.80 1027.83 1027.99 1028.42 1028.79 1029.18 1029.33 1029.75 1030.12 1030.67 1031.00 1031.44 1031.81 1032.16 1032.48 1032.81 1033.20 1033.52 1033.86 1034.26 1034.57 1034.78 1034.82 1034.73 1034.50 1034.16
1018.88 1019.35 1020.02 1020.57 1020.90 1021.42 1022.15 1022.72 1022.79 1023.17 1023.63 1024.23 1024.71 1025.18 1025.55 1026.34 1027.03 1027.04 1027.03 1027.23 1027.80 1028.40 1028.82 1029.24 1029.68 1030.15 1030.57 1030.99 1031.33 1031.75 1032.25 1032.73 1033.14 1033.50 1033.88 1034.30 1034.67 1034.99 1035.27 1035.47 1035.47 1035.36 1035.17 1034.81
1019.54 1020.01 1020.51 1020.93 1021.27 1021.87 1022.30 1022.81 1023.17 1023.61 1024.03 1024.50 1024.93 1025.31 1025.53 1025.86 1026.15 1026.86 1027.14 1027.53 1028.12 1028.70 1029.28 1029.75 1029.98 1030.37 1030.74 1031.35 1031.90 1032.49 1033.05 1033.52 1033.92 1034.27 1034.71 1035.02 1035.42 1035.66 1035.91 1036.16 1036.23 1035.95 1035.59 1035.13
1020.14 1020.57 1020.96 1021.15 1021.43 1021.94 1022.43 1022.78 1023.24 1023.82 1024.24 1024.79 1025.27 1025.60 1025.81 1026.00 1026.35 1027.02 1027.58 1028.12 1028.76 1029.39 1029.99 1030.41 1030.60 1030.94 1031.50 1032.06 1032.69 1033.30 1033.76 1034.20 1034.69 1035.01 1035.43 1035.48 1035.75 1035.87 1036.34 1036.19 1036.24 1035.90 1035.59 1035.18
1020.53 1020.85 1021.24 1021.61 1021.89 1022.21 1022.56 1022.94 1023.40 1023.95 1024.33 1024.79 1025.39 1025.96 1026.16 1026.53 1027.03 1027.63 1028.30 1029.01 1029.68 1030.30 1030.82 1031.23 1031.63 1032.02 1032.55 1033.12 1033.63 1034.08 1034.58 1035.04 1035.37 1035.63 1036.18 1036.29 1036.51 1036.80 1036.80 1036.58 1036.19 1035.76 1035.26 1034.83
Thickness
5480 5487 5481 5469 5470 5472 5469 5476 5475 5483 5475 5479 5461 5449 5439 5427 5412 5407 5403 5402 5400 5394 5393 5385 5384 5387 5389 5387 5383 5381 5377 5376 5375 5374 5376 5379 5382 5384 5384 5385 5390 5397 5404 5411
5441 5472 5472 5465 5471 5464 5465 5464 5464 5471 5469 5456 5453 5445 5431 5423 5412 5405 5402 5400 5395 5392 5389 5382 5383 5383 5384 5382 5379 5376 5370 5371 5368 5368 5366 5369 5368 5371 5375 5377 5380 5387 5393 5392
5469 5468 5463 5467 5468 5463 5471 5473 5481 5470 5483 5442 5439 5437 5429 5417 5410 5403 5398 5395 5389 5385 5380 5376 5376 5378 5377 5376 5373 5370 5366 5366 5363 5363 5360 5362 5361 5361 5364 5367 5367 5377 5382 5387
5463 5455 5458 5472 5469 5470 5468 5478 5469 5461 5445 5444 5439 5426 5419 5411 5406 5399 5394 5388 5381 5372 5369 5369 5371 5371 5372 5370 5368 5364 5362 5361 5360 5359 5356 5355 5356 5356 5357 5357 5360 5367 5371 5374
5461 5460 5467 5484 5467 5460 5463 5480 5473 5462 5438 5425 5420 5416 5407 5405 5400 5394 5389 5383 5375 5367 5359 5362 5364 5364 5364 5362 5360 5359 5355 5354 5353 5352 5352 5350 5355 5354 5354 5357 5357 5357 5356 5363
5449 5459 5462 5482 5474 5469 5470 5460 5457 5450 5434 5425 5421 5419 5408 5401 5395 5388 5382 5376 5367 5361 5355 5355 5354 5354 5354 5352 5352 5351 5349 5346 5344 5342 5343 5341 5343 5345 5347 5351 5353 5355 5357 5355
5453 5458 5463 5475 5469 5467 5461 5458 5448 5443 5434 5424 5422 5415 5406 5397 5385 5377 5372 5365 5357 5351 5346 5344 5344 5345 5342 5342 5341 5342 5341 5339 5338 5337 5335 5334 5334 5335 5335 5336 5337 5338 5338 5339
5447 5458 5462 5466 5461 5461 5458 5446 5443 5436 5428 5422 5408 5401 5395 5385 5373 5366 5359 5353 5347 5342 5336 5334 5333 5334 5331 5331 5331 5332 5332 5331 5330 5328 5328 5326 5325 5325 5325 5325 5324 5324 5323 5324
5458 5457 5454 5450 5458 5454 5450 5444 5438 5429 5422 5411 5400 5391 5381 5372 5365 5358 5351 5344 5338 5333 5328 5325 5324 5324 5322 5321 5322 5323 5322 5321 5320 5319 5319 5319 5318 5317 5318 5319 5318 5316 5315 5312
5450 5446 5447 5451 5447 5447 5446 5443 5432 5425 5415 5405 5394 5383 5373 5366 5359 5350 5342 5335 5330 5325 5321 5317 5316 5316 5315 5315 5314 5314 5314 5312 5311 5311 5309 5309 5309 5310 5308 5307 5307 5306 5304 5302
5436 5436 5441 5444 5446 5439 5432 5429 5424 5415 5408 5398 5389 5377 5371 5363 5355 5345 5337 5330 5325 5319 5314 5310 5308 5307 5308 5307 5307 5307 5306 5305 5303 5301 5300 5299 5300 5301 5299 5295 5294 5291 5287 5287
5436 5448 5448 5445 5437 5431 5426 5420 5415 5410 5398 5391 5385 5375 5367 5357 5348 5339 5332 5325 5319 5314 5309 5304 5302 5301 5300 5300 5300 5299 5299 5297 5295 5293 5291 5290 5290 5289 5288 5286 5285 5283 5280 5279
5445 5439 5433 5429 5425 5424 5417 5411 5407 5401 5394 5386 5378 5371 5360 5350 5340 5334 5326 5321 5315 5310 5305 5300 5297 5295 5294 5293 5292 5290 5289 5288 5286 5285 5282 5280 5276 5274 5268 5268 5269 5267 5265 5264
5433 5434 5427 5424 5420 5416 5411 5406 5400 5391 5384 5380 5372 5361 5353 5343 5334 5327 5322 5317 5312 5306 5301 5297 5293 5289 5286 5285 5283 5280 5277 5277 5274 5270 5266 5264 5259 5257 5251 5248 5244 5243 5248 5247
5432 5433 5430 5421 5413 5406 5402 5396 5388 5381 5374 5366 5360 5354 5345 5336 5328 5322 5316 5312 5307 5301 5295 5291 5285 5279 5278 5277 5274 5270 5269 5265 5261 5258 5257 5255 5251 5248 5243 5240 5236 5231 5232 5232
5420 5417 5415 5412 5405 5398 5393 5386 5381 5371 5367 5359 5353 5346 5340 5333 5323 5315 5310 5306 5301 5295 5289 5282 5278 5274 5272 5270 5267 5264 5261 5258 5255 5251 5247 5243 5239 5235 5231 5227 5223 5218 5215 5213
5415 5408 5405 5402 5399 5394 5389 5384 5378 5369 5361 5356 5349 5340 5331 5323 5315 5306 5300 5297 5292 5287 5283 5277 5271 5268 5264 5261 5257 5253 5250 5248 5246 5241 5236 5232 5227 5224 5219 5213 5211 5204 5199 5197
5421 5416 5409 5404 5396 5387 5380 5374 5368 5362 5356 5350 5341 5330 5320 5315 5311 5299 5290 5284 5280 5275 5274 5270 5266 5261 5257 5254 5251 5247 5244 5241 5236 5231 5227 5222 5217 5214 5208 5202 5196 5190 5187 5183
5413 5407 5401 5396 5390 5383 5375 5368 5362 5356 5345 5337 5328 5322 5316 5307 5301 5293 5283 5275 5267 5263 5263 5262 5260 5254 5249 5246 5242 5238 5234 5230 5226 5222 5217 5212 5205 5200 5194 5186 5182 5176 5170 5165
5403 5399 5392 5386 5381 5375 5369 5362 5352 5344 5335 5326 5316 5309 5301 5291 5289 5282 5273 5269 5265 5261 5259 5255 5251 5246 5243 5239 5235 5230 5225 5219 5215 5209 5203 5198 5190 5183 5178 5174 5169 5161 5153 5147
5395 5388 5382 5377 5367 5360 5357 5351 5345 5336 5324 5319 5314 5306 5300 5287 5278 5272 5262 5262 5261 5256 5253 5248 5243 5238 5234 5230 5225 5219 5213 5206 5199 5194 5189 5182 5174 5168 5161 5154 5148 5142 5134 5127
5376 5371 5363 5361 5357 5345 5338 5338 5335 5327 5318 5307 5298 5293 5286 5273 5267 5263 5260 5260 5258 5252 5246 5241 5235 5230 5225 5219 5214 5207 5200 5194 5187 5180 5175 5167 5159 5150 5142 5136 5127 5121 5113 5106
5365 5360 5353 5349 5347 5339 5331 5327 5321 5319 5312 5304 5297 5289 5285 5278 5270 5264 5259 5256 5251 5244 5239 5233 5226 5220 5213 5207 5200 5193 5186 5180 5173 5166 5158 5151 5142 5133 5125 5116 5107 5099 5092 5085
5351 5349 5340 5336 5334 5332 5327 5314 5314 5309 5302 5296 5290 5284 5279 5269 5259 5258 5255 5250 5242 5235 5228 5221 5215 5208 5201 5193 5186 5179 5171 5162 5154 5147 5139 5130 5121 5113 5104 5095 5087 5079 5072 5064
5340 5334 5331 5329 5328 5320 5316 5310 5305 5300 5295 5289 5282 5275 5271 5265 5259 5251 5244 5238 5230 5222 5214 5208 5202 5195 5187 5179 5170 5161 5152 5143 5135 5127 5118 5109 5100 5092 5084 5076 5068 5059 5051 5042
5333 5328 5323 5322 5319 5314 5309 5305 5299 5292 5286 5278 5271 5264 5259 5254 5248 5239 5231 5224 5215 5207 5199 5191 5185 5178 5169 5160 5151 5142 5134 5125 5116 5107 5099 5091 5082 5074 5065 5057 5048 5040 5032 5024
5324 5320 5315 5311 5308 5304 5300 5295 5289 5282 5276 5269 5260 5251 5246 5239 5232 5224 5215 5205 5197 5189 5181 5173 5166 5158 5150 5141 5133 5124 5115 5106 5098 5089 5081 5073 5064 5055 5047 5039 5031 5024 5017 5011